Time,TemperatureF,DewpointF,PressureIn,WindDirection,WindDirectionDegrees,WindSpeedMPH,WindSpeedGustMPH,Humidity,HourlyPrecipIn,Conditions,Clouds,dailyrainin,SolarRadiationWatts/m^2,SoftwareType,DateUTC
2013-07-13 00:01:00,53.0,50.0,-100.00,NE,52,0.0,2.0,90,0.00,,,0.02,0.000000,,2013-07-13 06:01:00,
2013-07-13 00:11:00,53.0,50.0,-100.00,NE,52,0.0,2.0,90,0.00,,,0.02,0.000000,,2013-07-13 06:11:00,
2013-07-13 00:22:00,54.0,48.0,-100.00,South,173,0.0,2.0,81,0.00,,,0.02,0.000000,,2013-07-13 06:22:00,
2013-07-13 00:43:00,54.0,48.0,-100.00,South,173,0.0,2.0,81,0.00,,,0.02,0.000000,,2013-07-13 06:43:00,
2013-07-13 00:52:00,54.0,48.0,-100.00,South,173,0.0,2.0,81,0.00,,,0.02,0.000000,,2013-07-13 06:52:00,
2013-07-13 01:02:00,54.0,48.0,-100.00,South,173,0.0,2.0,81,0.00,,,0.02,0.000000,,2013-07-13 07:02:00,
2013-07-13 01:11:00,54.0,48.0,-100.00,South,173,0.0,2.0,81,0.00,,,0.02,0.000000,,2013-07-13 07:11:00,
2013-07-13 01:22:00,54.0,48.0,-100.00,ENE,75,2.0,3.0,79,0.00,,,0.02,0.000000,,2013-07-13 07:22:00,
2013-07-13 01:44:00,54.0,48.0,-100.00,ENE,75,2.0,3.0,79,0.00,,,0.02,0.000000,,2013-07-13 07:44:00,
2013-07-13 01:53:00,54.0,48.0,-100.00,ENE,75,2.0,3.0,79,0.00,,,0.02,0.000000,,2013-07-13 07:53:00,
2013-07-13 02:01:00,54.0,48.0,-100.00,ENE,75,2.0,3.0,79,0.00,,,0.02,0.000000,,2013-07-13 08:01:00,
2013-07-13 02:11:00,54.0,48.0,-100.00,ENE,75,2.0,3.0,79,0.00,,,0.02,0.000000,,2013-07-13 08:11:00,
2013-07-13 02:22:00,53.0,47.0,-100.00,WNW,284,0.0,2.0,80,0.00,,,0.02,0.000000,,2013-07-13 08:22:00,
2013-07-13 02:43:00,53.0,47.0,-100.00,WNW,284,0.0,2.0,80,0.00,,,0.02,0.000000,,2013-07-13 08:43:00,
2013-07-13 02:52:00,53.0,47.0,-100.00,WNW,284,0.0,2.0,80,0.00,,,0.02,0.000000,,2013-07-13 08:52:00,
2013-07-13 03:02:00,53.0,47.0,-100.00,WNW,284,0.0,2.0,80,0.00,,,0.02,0.000000,,2013-07-13 09:02:00,
2013-07-13 03:11:00,53.0,47.0,-100.00,WNW,284,0.0,2.0,80,0.00,,,0.02,0.000000,,2013-07-13 09:11:00,
2013-07-13 03:22:00,52.0,47.0,-100.00,WNW,282,2.0,3.0,82,0.00,,,0.02,0.000000,,2013-07-13 09:22:00,
2013-07-13 03:53:00,52.0,47.0,-100.00,WNW,282,2.0,3.0,82,0.00,,,0.02,0.000000,,2013-07-13 09:53:00,
2013-07-13 04:01:00,52.0,47.0,-100.00,WNW,282,2.0,3.0,82,0.00,,,0.02,0.000000,,2013-07-13 10:01:00,
2013-07-13 04:11:00,52.0,47.0,-100.00,WNW,282,2.0,3.0,82,0.00,,,0.02,0.000000,,2013-07-13 10:11:00,
2013-07-13 04:22:00,51.0,47.0,-100.00,ESE,106,1.0,2.0,85,0.00,,,0.02,0.000000,,2013-07-13 10:22:00,
2013-07-13 04:43:00,51.0,47.0,-100.00,ESE,106,1.0,2.0,85,0.00,,,0.02,0.000000,,2013-07-13 10:43:00,
2013-07-13 04:52:00,51.0,47.0,-100.00,ESE,106,1.0,2.0,85,0.00,,,0.02,0.000000,,2013-07-13 10:52:00,
2013-07-13 05:02:00,51.0,47.0,-100.00,ESE,106,1.0,2.0,85,0.00,,,0.02,0.000000,,2013-07-13 11:02:00,
2013-07-13 05:11:00,51.0,47.0,-100.00,ESE,106,1.0,2.0,85,0.00,,,0.02,0.000000,,2013-07-13 11:11:00,
2013-07-13 05:22:00,52.0,47.0,-100.00,SE,125,2.0,3.0,82,0.00,,,0.02,0.000000,,2013-07-13 11:22:00,
2013-07-13 05:43:00,52.0,47.0,-100.00,SE,125,2.0,3.0,82,0.00,,,0.02,0.000000,,2013-07-13 11:43:00,
2013-07-13 05:52:00,52.0,47.0,-100.00,SE,125,2.0,3.0,82,0.00,,,0.02,0.000000,,2013-07-13 11:52:00,
2013-07-13 06:02:00,52.0,47.0,-100.00,SE,125,2.0,3.0,82,0.00,,,0.02,0.000000,,2013-07-13 12:02:00,
2013-07-13 06:12:00,52.0,47.0,-100.00,SE,125,2.0,3.0,82,0.00,,,0.02,0.000000,,2013-07-13 12:12:00,
2013-07-13 06:22:00,49.0,44.0,-100.00,East,91,2.0,4.0,84,0.00,,,0.02,5.000000,,2013-07-13 12:22:00,
2013-07-13 06:43:00,49.0,44.0,-100.00,East,91,2.0,4.0,84,0.00,,,0.02,5.000000,,2013-07-13 12:43:00,
2013-07-13 06:52:00,49.0,44.0,-100.00,East,91,2.0,4.0,84,0.00,,,0.02,5.000000,,2013-07-13 12:52:00,
2013-07-13 07:01:00,49.0,44.0,-100.00,East,91,2.0,4.0,84,0.00,,,0.02,5.000000,,2013-07-13 13:01:00,
2013-07-13 07:12:00,49.0,44.0,-100.00,East,91,2.0,4.0,84,0.00,,,0.02,5.000000,,2013-07-13 13:12:00,
2013-07-13 07:22:00,53.0,47.0,-100.00,SW,227,0.0,2.0,79,0.00,,,0.02,72.000000,,2013-07-13 13:22:00,
2013-07-13 07:43:00,53.0,47.0,-100.00,SW,227,0.0,2.0,79,0.00,,,0.02,72.000000,,2013-07-13 13:43:00,
2013-07-13 07:53:00,53.0,47.0,-100.00,SW,227,0.0,2.0,79,0.00,,,0.02,72.000000,,2013-07-13 13:53:00,
2013-07-13 08:02:00,53.0,47.0,-100.00,SW,227,0.0,2.0,79,0.00,,,0.02,72.000000,,2013-07-13 14:02:00,
2013-07-13 08:11:00,53.0,47.0,-100.00,SW,227,0.0,2.0,79,0.00,,,0.02,72.000000,,2013-07-13 14:11:00,
2013-07-13 08:22:00,57.0,48.0,-100.00,ENE,65,2.0,3.0,72,0.00,,,0.02,112.000000,,2013-07-13 14:22:00,
2013-07-13 08:44:00,57.0,48.0,-100.00,ENE,65,2.0,3.0,72,0.00,,,0.02,112.000000,,2013-07-13 14:44:00,
2013-07-13 08:53:00,57.0,48.0,-100.00,ENE,65,2.0,3.0,72,0.00,,,0.02,112.000000,,2013-07-13 14:53:00,
2013-07-13 09:02:00,57.0,48.0,-100.00,ENE,65,2.0,3.0,72,0.00,,,0.02,112.000000,,2013-07-13 15:02:00,
2013-07-13 09:12:00,57.0,48.0,-100.00,ENE,65,2.0,3.0,72,0.00,,,0.02,112.000000,,2013-07-13 15:12:00,
2013-07-13 09:22:00,67.0,50.0,-100.00,NW,320,3.0,4.0,55,0.00,,,0.02,581.000000,,2013-07-13 15:22:00,
2013-07-13 09:53:00,67.0,50.0,-100.00,NW,320,3.0,4.0,55,0.00,,,0.02,581.000000,,2013-07-13 15:53:00,
2013-07-13 10:02:00,67.0,50.0,-100.00,NW,320,3.0,4.0,55,0.00,,,0.02,581.000000,,2013-07-13 16:02:00,
2013-07-13 10:11:00,67.0,50.0,-100.00,NW,320,3.0,4.0,55,0.00,,,0.02,581.000000,,2013-07-13 16:11:00,
2013-07-13 10:22:00,69.0,49.0,-100.00,WNW,297,3.0,6.0,49,0.00,,,0.02,805.000000,,2013-07-13 16:22:00,
2013-07-13 10:43:00,69.0,49.0,-100.00,WNW,297,3.0,6.0,49,0.00,,,0.02,805.000000,,2013-07-13 16:43:00,
2013-07-13 10:53:00,69.0,49.0,-100.00,WNW,297,3.0,6.0,49,0.00,,,0.02,805.000000,,2013-07-13 16:53:00,
2013-07-13 11:01:00,69.0,49.0,-100.00,WNW,297,3.0,6.0,49,0.00,,,0.02,805.000000,,2013-07-13 17:01:00,
2013-07-13 11:12:00,69.0,49.0,-100.00,WNW,297,3.0,6.0,49,0.00,,,0.02,805.000000,,2013-07-13 17:12:00,
2013-07-13 11:43:00,73.0,45.0,-100.00,WNW,284,4.0,8.0,37,0.00,,,0.02,973.000000,,2013-07-13 17:43:00,
2013-07-13 11:52:00,73.0,45.0,-100.00,WNW,284,4.0,8.0,37,0.00,,,0.02,973.000000,,2013-07-13 17:52:00,
2013-07-13 12:01:00,73.0,45.0,-100.00,WNW,284,4.0,8.0,37,0.00,,,0.02,973.000000,,2013-07-13 18:01:00,
2013-07-13 12:11:00,73.0,45.0,-100.00,WNW,284,4.0,8.0,37,0.00,,,0.02,973.000000,,2013-07-13 18:11:00,
2013-07-13 12:21:00,73.0,45.0,-100.00,WNW,284,4.0,8.0,37,0.00,,,0.02,973.000000,,2013-07-13 18:21:00,
2013-07-13 12:22:00,76.0,42.0,-100.00,NNW,331,4.0,9.0,30,0.00,,,0.02,1102.000000,,2013-07-13 18:22:00,
2013-07-13 12:44:00,76.0,42.0,-100.00,NNW,331,4.0,9.0,30,0.00,,,0.02,1102.000000,,2013-07-13 18:44:00,
2013-07-13 12:53:00,76.0,42.0,-100.00,NNW,331,4.0,9.0,30,0.00,,,0.02,1102.000000,,2013-07-13 18:53:00,
2013-07-13 13:02:00,76.0,42.0,-100.00,NNW,331,4.0,9.0,30,0.00,,,0.02,1102.000000,,2013-07-13 19:02:00,
2013-07-13 13:11:00,76.0,42.0,-100.00,NNW,331,4.0,9.0,30,0.00,,,0.02,1102.000000,,2013-07-13 19:11:00,
2013-07-13 13:22:00,74.0,46.0,-100.00,WNW,298,4.0,9.0,37,0.00,,,0.02,650.000000,,2013-07-13 19:22:00,
2013-07-13 13:52:00,74.0,46.0,-100.00,WNW,298,4.0,9.0,37,0.00,,,0.02,650.000000,,2013-07-13 19:52:00,
2013-07-13 14:01:00,74.0,46.0,-100.00,WNW,298,4.0,9.0,37,0.00,,,0.02,650.000000,,2013-07-13 20:01:00,
2013-07-13 14:11:00,74.0,46.0,-100.00,WNW,298,4.0,9.0,37,0.00,,,0.02,650.000000,,2013-07-13 20:11:00,
2013-07-13 14:22:00,64.0,51.0,-100.00,South,181,4.0,12.0,63,0.00,,,0.01,253.000000,,2013-07-13 20:22:00,
2013-07-13 14:43:00,64.0,51.0,-100.00,South,181,4.0,12.0,63,0.00,,,0.01,253.000000,,2013-07-13 20:43:00,
2013-07-13 14:53:00,64.0,51.0,-100.00,South,181,4.0,12.0,63,0.00,,,0.01,253.000000,,2013-07-13 20:53:00,
2013-07-13 15:02:00,64.0,51.0,-100.00,South,181,4.0,12.0,63,0.00,,,0.01,253.000000,,2013-07-13 21:02:00,
2013-07-13 15:12:00,64.0,51.0,-100.00,South,181,4.0,12.0,63,0.00,,,0.01,253.000000,,2013-07-13 21:12:00,
2013-07-13 16:22:00,71.0,51.0,-100.00,NW,310,3.0,9.0,50,-99.99,,,0.01,520.000000,,2013-07-13 22:22:00,
2013-07-13 16:43:00,71.0,51.0,-100.00,NW,310,3.0,9.0,50,-99.99,,,0.01,520.000000,,2013-07-13 22:43:00,
2013-07-13 16:53:00,71.0,51.0,-100.00,NW,310,3.0,9.0,50,-99.99,,,0.01,520.000000,,2013-07-13 22:53:00,
2013-07-13 17:01:00,71.0,51.0,-100.00,NW,310,3.0,9.0,50,-99.99,,,0.01,520.000000,,2013-07-13 23:01:00,
2013-07-13 17:11:00,71.0,51.0,-100.00,NW,310,3.0,9.0,50,-99.99,,,0.01,520.000000,,2013-07-13 23:11:00,
2013-07-13 17:42:00,72.0,48.0,-100.00,WNW,291,4.0,8.0,42,0.00,,,0.00,698.000000,,2013-07-13 23:42:00,
2013-07-13 17:53:00,72.0,48.0,-100.00,WNW,291,4.0,8.0,42,0.00,,,0.00,698.000000,,2013-07-13 23:53:00,
2013-07-13 18:01:00,72.0,48.0,-100.00,WNW,291,4.0,8.0,42,0.00,,,0.00,698.000000,,2013-07-14 00:01:00,
2013-07-13 18:11:00,72.0,48.0,-100.00,WNW,291,4.0,8.0,42,0.00,,,0.00,698.000000,,2013-07-14 00:11:00,
2013-07-13 18:21:00,72.0,48.0,-100.00,WNW,291,4.0,8.0,42,0.00,,,0.00,698.000000,,2013-07-14 00:21:00,
2013-07-13 18:22:00,72.0,47.0,-100.00,WNW,292,4.0,6.0,41,0.00,,,0.00,538.000000,,2013-07-14 00:22:00,
2013-07-13 18:53:00,72.0,47.0,-100.00,WNW,292,4.0,6.0,41,0.00,,,0.00,538.000000,,2013-07-14 00:53:00,
2013-07-13 19:02:00,72.0,47.0,-100.00,WNW,292,4.0,6.0,41,0.00,,,0.00,538.000000,,2013-07-14 01:02:00,
2013-07-13 19:11:00,72.0,47.0,-100.00,WNW,292,4.0,6.0,41,0.00,,,0.00,538.000000,,2013-07-14 01:11:00,
2013-07-13 19:22:00,67.0,46.0,-100.00,West,259,3.0,8.0,47,0.00,,,0.00,297.000000,,2013-07-14 01:22:00,
2013-07-13 19:43:00,67.0,46.0,-100.00,West,259,3.0,8.0,47,0.00,,,0.00,297.000000,,2013-07-14 01:43:00,
2013-07-13 19:52:00,67.0,46.0,-100.00,West,259,3.0,8.0,47,0.00,,,0.00,297.000000,,2013-07-14 01:52:00,
2013-07-13 20:01:00,67.0,46.0,-100.00,West,259,3.0,8.0,47,0.00,,,0.00,297.000000,,2013-07-14 02:01:00,
2013-07-13 20:11:00,67.0,46.0,-100.00,West,259,3.0,8.0,47,0.00,,,0.00,297.000000,,2013-07-14 02:11:00,
2013-07-13 20:22:00,65.0,45.0,-100.00,NW,324,1.0,4.0,49,0.00,,,0.00,29.000000,,2013-07-14 02:22:00,
2013-07-13 20:43:00,65.0,45.0,-100.00,NW,324,1.0,4.0,49,0.00,,,0.00,29.000000,,2013-07-14 02:43:00,
2013-07-13 20:53:00,65.0,45.0,-100.00,NW,324,1.0,4.0,49,0.00,,,0.00,29.000000,,2013-07-14 02:53:00,
2013-07-13 21:01:00,65.0,45.0,-100.00,NW,324,1.0,4.0,49,0.00,,,0.00,29.000000,,2013-07-14 03:01:00,
2013-07-13 21:11:00,65.0,45.0,-100.00,NW,324,1.0,4.0,49,0.00,,,0.00,29.000000,,2013-07-14 03:11:00,
2013-07-13 21:22:00,60.0,47.0,-100.00,ESE,110,2.0,3.0,63,0.00,,,0.00,2.000000,,2013-07-14 03:22:00,
2013-07-13 21:53:00,60.0,47.0,-100.00,ESE,110,2.0,3.0,63,0.00,,,0.00,2.000000,,2013-07-14 03:53:00,
2013-07-13 22:02:00,60.0,47.0,-100.00,ESE,110,2.0,3.0,63,0.00,,,0.00,2.000000,,2013-07-14 04:02:00,
2013-07-13 22:11:00,60.0,47.0,-100.00,ESE,110,2.0,3.0,63,0.00,,,0.00,2.000000,,2013-07-14 04:11:00,
2013-07-13 22:22:00,60.0,47.0,-100.00,SE,125,2.0,3.0,61,0.00,,,0.00,0.000000,,2013-07-14 04:22:00,
2013-07-13 22:42:00,60.0,47.0,-100.00,SE,125,2.0,3.0,61,0.00,,,0.00,0.000000,,2013-07-14 04:42:00,
2013-07-13 22:54:00,60.0,47.0,-100.00,SE,125,2.0,3.0,61,0.00,,,0.00,0.000000,,2013-07-14 04:54:00,
2013-07-13 23:02:00,60.0,47.0,-100.00,SE,125,2.0,3.0,61,0.00,,,0.00,0.000000,,2013-07-14 05:02:00,
2013-07-13 23:11:00,60.0,47.0,-100.00,SE,125,2.0,3.0,61,0.00,,,0.00,0.000000,,2013-07-14 05:11:00,
2013-07-13 23:22:00,59.0,47.0,-100.00,SE,128,2.0,3.0,65,0.00,,,0.00,0.000000,,2013-07-14 05:22:00,
2013-07-13 23:43:00,59.0,47.0,-100.00,SE,128,2.0,3.0,65,0.00,,,0.00,0.000000,,2013-07-14 05:43:00,
2013-07-13 23:53:00,59.0,47.0,-100.00,SE,128,2.0,3.0,65,0.00,,,0.00,0.000000,,2013-07-14 05:53:00,